SCP
0 0 0 0 0 0 0 0 0 0 0 0 0 0 0 0 0 0 0 0 0 0 1 1 2 2 2 1 1 1 1 1 1 1 1 1 1 1 1 1 1 1 1
0 0 0 0 0 0 0 0 0 0 0 0 0 0 0 0 0 0 0 0 0 0 0 1 1 1 1 2 1 1 1 1 1 1 1 1 1 1 1 1 1 1 1
0 0 0 0 0 0 0 0 0 0 0 0 0 0 0 0 0 0 0 0 0 0 0 1 1 1 1 1 2 1 1 1 1 1 0 0 1 1 1 1 1 1 0
0 0 0 0 0 0 0 0 0 0 0 0 0 0 0 0 0 0 0 0 0 0 0 1 1 1 2 1 1 1 1 1 1 1 1 1 1 1 1 1 0 1 1
0 0 0 0 0 0 0 0 0 0 0 0 0 0 0 0 0 0 0 0 0 0 0 1 1 1 1 1 1 1 1 1 1 1 0 0 1 0 0 0 1 0 1
0 0 0 0 0 0 0 0 0 0 0 0 0 1 0 0 0 0 0 0 0 0 0 0 0 0 0 1 1 1 1 0 1 0 1 0 0 0 0 1 1 1 1
0 0 0 0 0 0 1 1 1 1 1 0 1 0 0 0 0 0 0 0 0 0 0 0 0 0 0 0 0 0 0 1 1 1 1 1 0 0 0 0 0 0 0
0 0 0 0 1 1 1 1 1 1 1 0 0 0 0 0 0 0 0 0 0 0 0 0 0 0 0 0 0 0 1 1 1 1 1 0 0 0 0 0 0 0 0
0 0 0 0 0 1 1 1 1 1 1 0 0 0 0 0 0 0 0 0 0 0 0 0 0 0 0 0 0 0 1 1 0 0 0 0 0 0 0 0 0 0 0
1 1 1 1 1 2 2 1 1 0 0 0 0 0 0 0 0 0 0 0 0 0 0 0 0 0 0 0 1 1 0 0 0 0 0 0 0 0 0 0 0 0 0
2 2 2 2 2 2 1 1 0 0 0 0 0 0 0 0 0 0 0 0 0 0 0 0 0 0 0 0 0 0 0 0 0 0 0 0 0 0 0 0 0 0 0
3 3 3 3 2 2 1 0 0 0 0 0 0 0 0 0 0 0 0 0 0 0 0 0 0 0 0 0 0 0 0 0 0 0 0 0 0 0 0 0 0 0 0
4 3 3 2 2 1 0 0 0 0 0 0 0 0 0 0 0 0 0 0 0 0 0 0 0 0 0 0 0 0 0 0 0 0 0 0 0 0 0 0 0 0 0
2 1 1 0 0 0 0 0 0 0 0 0 0 0 0 0 0 0 0 0 0 0 0 0 0 0 0 0 0 0 0 0 0 0 0 0 0 0 0 0 0 0 0
1 0 0 0 0 0 0 0 0 0 0 0 0 0 0 0 0 0 0 0 0 0 0 0 0 0 0 0 0 0 0 0 0 0 0 0 0 0 0 0 0 0 0
0 0 0 0 0 0 0 0 0 0 0 0 0 0 0 0 0 0 0 0 0 0 0 0 0 0 0 0 0 0 0 0 0 0 0 0 0 0 0 0 0 0 0
0 0 0 0 0 0 0 0 0 0 0 0 0 0 0 0 0 0 0 0 0 0 0 0 0 0 0 0 0 0 0 0 0 0 0 0 0 0 0 0 0 0 0
0 0 0 0 0 0 0 0 0 0 0 0 0 0 0 0 0 0 0 0 0 0 0 0 0 0 0 0 0 0 0 0 0 0 0 0 0 0 0 0 0 0 0
0 0 0 0 0 0 0 0 0 0 0 0 0 0 0 0 0 0 0 0 0 0 0 0 0 0 0 0 0 0 0 0 0 0 0 0 0 0 0 0 0 0 0
0 0 0 0 0 0 0 0 0 0 0 0 0 0 0 0 0 0 0 0 0 0 0 0 0 0 0 0 0 0 0 0 0 0 0 0 0 0 0 0 0 0 0
0 0 0 0 0 0 0 0 0 0 0 0 0 0 0 0 0 0 0 0 0 0 0 0 0 0 0 0 0 0 0 0 0 0 0 0 0 0 0 0 0 0 0
0 0 0 0 0 0 0 0 0 0 0 0 0 0 0 0 0 0 0 0 0 0 0 0 0 0 0 0 0 0 0 0 0 0 0 0 0 0 0 0 0 0 0
0 0 0 0 0 0 0 0 0 0 0 0 0 0 0 0 0 0 0 0 0 0 0 0 0 0 0 0 0 0 0 0 0 0 0 0 0 0 0 0 0 0 0
0 0 0 0 0 0 0 0 0 0 0 0 0 0 0 0 0 0 0 0 0 0 0 0 0 0 0 0 0 0 0 0 0 0 0 0 0 0 0 0 0 0 0
0 0 0 0 0 0 0 0 0 0 0 0 0 0 0 0 0 0 0 0 0 0 0 0 0 0 0 0 0 0 0 0 0 0 0 0 0 0 0 0 0 0 0
0 0 0 0 0 0 0 0 0 0 0 0 0 0 0 0 0 0 0 0 0 0 0 0 0 0 0 0 0 0 0 0 0 0 0 0 0 0 0 0 0 0 0
Wind_Speed_500mb
42 40 40 37 31 26 19 14 9 11 11 11 14 17 18 16 16 21 24 24 24 26 32 36 38 37 37 40 43 48 51 47 46 42 43 45 47 48 50 51 51 52 52
39 39 39 39 34 27 22 17 13 13 17 20 23 25 27 28 27 28 29 29 31 32 36 42 44 46 49 50 52 51 57 49 45 43 47 47 47 49 49 49 52 50 55
42 41 39 37 34 31 27 22 19 20 21 23 24 25 30 31 31 33 34 39 41 42 42 47 51 51 54 59 64 63 54 51 43 46 49 53 54 53 49 46 47 58 52
43 43 41 38 30 26 24 23 24 29 31 31 33 34 37 38 40 39 41 44 48 47 49 46 47 50 50 49 55 65 46 37 37 44 48 51 54 59 64 65 66 66 67
44 43 41 35 30 29 26 24 27 34 36 37 38 42 44 48 48 46 50 57 57 50 51 53 54 51 57 55 46 36 41 42 42 48 49 54 57 52 52 60 63 65 70
42 41 39 34 28 29 28 29 32 32 34 38 40 43 48 54 58 61 57 52 50 48 46 42 40 36 35 40 42 40 43 42 46 48 55 53 56 54 57 55 54 60 60
35 29 25 28 31 33 33 36 34 35 41 46 47 55 58 46 48 44 37 32 31 34 32 44 43 43 45 43 42 36 43 39 41 49 48 53 55 61 54 52 58 51 50
37 32 25 24 26 23 19 22 32 38 40 48 50 48 45 56 33 19 22 36 31 32 39 45 39 34 38 38 43 40 31 38 42 42 47 50 52 48 47 46 41 42 43
43 35 31 31 26 25 28 32 36 41 48 51 54 37 21 14 42 44 41 37 32 38 38 39 37 37 38 37 38 39 39 43 47 46 46 44 37 35 38 42 41 36 36
41 31 28 36 25 30 32 39 41 44 50 52 46 35 31 31 21 32 46 42 43 45 44 45 48 48 44 41 40 41 42 42 42 39 45 46 34 31 36 40 31 31 48
44 41 36 31 28 29 32 44 49 52 52 42 30 31 30 30 28 26 38 45 46 52 55 51 55 44 40 40 39 42 36 39 32 33 41 44 34 26 30 42 50 37 26
48 42 36 30 27 37 42 44 53 51 35 28 28 27 25 22 30 31 42 50 47 48 45 46 47 38 34 28 28 34 33 30 30 39 41 42 39 32 31 32 31 34 21
48 46 42 44 30 53 41 49 36 29 31 21 21 24 29 31 36 39 42 39 38 46 37 32 35 37 33 31 28 26 26 30 35 30 30 32 34 36 34 35 33 23 28
52 42 30 28 32 48 38 30 27 27 23 26 30 30 32 35 36 34 33 32 40 34 28 30 25 34 38 36 32 29 30 31 26 30 27 29 34 31 26 24 29 28 28
40 37 22 36 47 36 33 29 27 27 27 27 32 25 24 27 26 27 27 28 28 25 34 22 30 43 49 46 43 39 35 30 32 37 32 35 38 33 31 29 30 24 24
33 32 40 54 39 33 24 26 26 26 22 21 18 19 23 25 29 30 31 31 31 28 22 33 42 47 50 54 53 45 39 36 38 39 42 49 45 42 44 42 37 34 26
43 60 41 39 29 27 25 23 22 17 20 19 20 26 29 31 32 31 31 31 31 31 33 40 45 47 46 47 48 46 43 42 41 43 45 47 48 48 51 56 54 50 43
44 39 36 27 27 25 21 20 19 20 22 23 26 28 29 30 29 25 26 28 31 36 40 45 48 48 44 43 45 48 46 42 44 48 46 47 49 52 53 57 63 67 67
48 42 32 30 26 25 21 20 21 23 27 30 32 31 28 20 19 17 21 28 35 41 42 40 40 38 39 40 41 39 40 38 36 41 43 51 55 57 59 60 57 56 63
48 39 35 31 27 21 20 20 23 30 32 26 15 6 3 5 11 20 27 39 41 36 33 30 30 33 32 32 33 38 32 28 25 19 19 28 36 47 56 63 62 58 52
42 39 35 29 22 18 19 20 26 20 9 0 5 2 3 9 17 29 30 33 32 29 28 26 20 24 28 32 36 44 45 43 31 34 47 40 42 41 37 42 48 55 58
43 36 29 21 15 15 14 17 8 1 3 4 2 3 4 14 21 26 33 26 23 22 21 23 24 26 28 34 39 42 48 56 62 46 64 58 46 39 34 34 36 39 43
38 30 21 13 10 6 4 10 13 9 8 7 4 2 8 16 20 25 18 14 11 15 20 21 24 28 34 36 45 50 51 55 56 58 59 63 45 47 39 33 31 34 36
32 23 16 10 7 10 15 14 9 6 7 6 4 7 12 17 19 14 12 12 8 12 17 22 26 32 38 43 48 53 58 64 64 59 50 56 55 58 49 42 33 28 31
29 22 16 13 12 14 16 8 4 4 6 7 7 9 14 17 10 11 13 15 15 18 20 26 32 38 44 48 53 58 58 61 70 64 40 29 57 62 52 41 33 24 27
26 24 23 20 19 14 13 7 4 6 8 6 7 10 14 14 9 11 16 24 28 31 33 38 42 45 47 48 49 48 47 46 44 46 27 55 60 56 50 57 50 46 46
Wind_Direction_500mb
212 212 213 214 212 213 215 201 219 229 237 269 268 269 274 286 290 309 302 296 294 298 303 306 310 303 297 293 293 294 291 290 294 293 290 288 286 284 284 283 282 273 271
217 220 220 220 217 213 206 215 226 245 257 263 262 268 277 281 288 298 306 301 298 293 293 294 297 294 293 294 295 292 293 279 284 294 300 299 296 286 280 281 283 279 266
220 220 223 222 219 218 217 223 239 254 272 271 277 280 277 279 283 290 295 298 298 295 293 296 293 291 289 289 288 292 295 295 290 302 300 299 298 292 284 282 285 282 278
222 223 223 220 213 214 226 241 255 268 276 276 281 289 290 289 289 292 292 290 294 298 295 297 297 297 296 295 287 295 291 285 291 296 296 296 296 289 286 284 281 277 273
221 222 222 223 223 228 238 259 269 269 278 285 291 291 292 294 291 291 289 295 305 295 298 300 299 293 290 289 290 291 286 283 298 299 299 295 301 295 292 295 287 279 271
220 221 220 220 229 242 246 257 267 275 285 290 290 291 292 290 291 294 297 297 300 303 302 304 302 295 293 293 296 293 292 293 295 300 309 298 302 297 300 298 293 282 276
207 206 206 217 230 248 259 259 265 277 279 281 283 288 292 293 298 297 300 302 308 303 303 310 305 301 290 286 297 291 303 296 300 308 304 298 300 300 300 294 296 292 278
208 212 213 220 227 243 264 264 266 276 281 285 287 295 303 301 303 301 297 304 310 305 306 311 309 302 301 296 292 294 304 308 306 311 317 312 306 305 301 304 297 290 281
214 213 220 229 235 244 264 273 281 282 287 290 291 291 297 283 304 307 307 311 312 310 312 315 303 296 300 297 295 293 294 301 306 314 320 321 317 318 308 314 319 305 283
213 217 219 230 234 249 267 276 279 287 287 290 290 287 285 283 298 304 305 312 315 316 320 320 315 304 300 295 290 288 294 299 302 313 320 322 321 321 307 311 316 301 306
220 223 227 232 222 241 264 273 270 276 281 290 288 291 293 295 294 296 312 317 313 320 325 325 325 319 310 301 287 284 285 293 296 305 307 311 309 313 303 313 314 313 291
219 224 230 219 225 245 257 254 262 272 278 276 278 285 298 308 309 316 307 308 312 315 319 319 318 318 319 312 301 294 291 291 299 311 313 316 304 295 298 304 307 315 325
224 228 212 213 234 252 259 259 269 266 263 266 272 287 299 303 301 300 297 305 314 321 325 316 316 316 321 319 299 289 289 293 297 309 317 315 313 297 282 290 296 296 306
217 211 222 248 270 258 247 246 242 250 249 268 283 287 286 290 293 295 302 308 312 313 312 316 303 308 324 327 328 319 303 292 284 285 285 290 297 293 279 278 289 279 280
201 191 215 245 237 228 228 227 237 256 264 268 278 281 286 286 292 299 304 307 312 314 307 304 303 307 308 313 315 313 311 304 297 288 269 266 293 262 255 267 286 277 267
193 249 205 222 218 220 217 237 252 263 265 255 259 278 283 290 292 293 296 299 302 303 296 297 300 303 302 303 306 305 300 294 289 285 272 275 279 258 255 262 272 274 270
210 210 198 197 205 215 224 243 244 237 238 258 279 286 292 293 290 291 297 303 305 309 317 311 311 312 310 305 300 299 295 287 282 282 281 284 283 281 274 268 270 266 267
203 197 193 203 207 215 211 215 230 246 265 277 285 290 292 291 289 296 301 308 317 324 324 320 314 315 317 315 311 310 309 302 290 281 281 281 280 279 278 278 278 275 272
189 181 197 195 195 192 204 227 249 268 281 287 287 287 287 286 290 301 312 316 317 320 322 319 318 321 324 322 319 317 316 311 311 300 292 281 279 279 279 280 280 277 274
179 180 183 186 188 203 230 253 276 283 286 288 290 294 265 283 314 314 323 322 323 317 319 322 326 333 344 350 346 346 352 355 353 346 331 325 309 291 282 275 273 273 272
174 177 180 185 203 227 258 280 286 290 302 312 134 183 340 349 336 335 337 331 329 328 329 331 350 356 352 348 351 348 345 347 357 344 332 344 328 309 290 278 275 269 264
170 173 180 195 215 249 273 280 263 263 158 140 129 149 358 342 352 351 341 339 350 6 18 2 3 348 345 338 334 341 340 340 336 344 326 332 337 334 318 296 283 275 277
170 176 186 199 225 228 198 115 103 114 104 95 113 37 342 347 338 336 346 349 347 354 349 352 344 337 331 335 330 328 326 323 321 327 326 328 338 335 330 310 301 284 277
172 173 181 184 167 150 122 119 111 79 64 75 46 356 340 333 333 348 3 9 357 334 334 330 325 320 318 317 315 312 313 312 312 319 326 316 339 337 338 339 330 314 282
166 169 155 143 141 140 135 126 80 17 29 29 17 350 335 336 7 357 343 338 341 325 329 319 312 306 303 301 301 303 306 309 315 322 334 319 326 329 331 342 344 331 318
158 150 145 143 135 135 125 104 46 3 359 360 334 327 327 342 350 325 332 335 334 333 325 316 312 308 305 302 302 304 309 311 316 327 323 322 323 327 322 325 320 321 327
Wind_Speed_850mb
42 40 40 37 31 26 19 14 9 11 11 11 14 17 18 16 16 21 24 24 24 26 32 36 38 37 37 40 43 48 51 47 46 42 43 45 47 48 50 51 51 52 52
39 39 39 39 34 27 22 17 13 13 17 20 23 25 27 28 27 28 29 29 31 32 36 42 44 46 49 50 52 51 57 49 45 43 47 47 47 49 49 49 52 50 55
42 41 39 37 34 31 27 22 19 20 21 23 24 25 30 31 31 33 34 39 41 42 42 47 51 51 54 59 64 63 54 51 43 46 49 53 54 53 49 46 47 58 52
43 43 41 38 30 26 24 23 24 29 31 31 33 34 37 38 40 39 41 44 48 47 49 46 47 50 50 49 55 65 46 37 37 44 48 51 54 59 64 65 66 66 67
44 43 41 35 30 29 26 24 27 34 36 37 38 42 44 48 48 46 50 57 57 50 51 53 54 51 57 55 46 36 41 42 42 48 49 54 57 52 52 60 63 65 70
42 41 39 34 28 29 28 29 32 32 34 38 40 43 48 54 58 61 57 52 50 48 46 42 40 36 35 40 42 40 43 42 46 48 55 53 56 54 57 55 54 60 60
35 29 25 28 31 33 33 36 34 35 41 46 47 55 58 46 48 44 37 32 31 34 32 44 43 43 45 43 42 36 43 39 41 49 48 53 55 61 54 52 58 51 50
37 32 25 24 26 23 19 22 32 38 40 48 50 48 45 56 33 19 22 36 31 32 39 45 39 34 38 38 43 40 31 38 42 42 47 50 52 48 47 46 41 42 43
43 35 31 31 26 25 28 32 36 41 48 51 54 37 21 14 42 44 41 37 32 38 38 39 37 37 38 37 38 39 39 43 47 46 46 44 37 35 38 42 41 36 36
41 31 28 36 25 30 32 39 41 44 50 52 46 35 31 31 21 32 46 42 43 45 44 45 48 48 44 41 40 41 42 42 42 39 45 46 34 31 36 40 31 31 48
44 41 36 31 28 29 32 44 49 52 52 42 30 31 30 30 28 26 38 45 46 52 55 51 55 44 40 40 39 42 36 39 32 33 41 44 34 26 30 42 50 37 26
48 42 36 30 27 37 42 44 53 51 35 28 28 27 25 22 30 31 42 50 47 48 45 46 47 38 34 28 28 34 33 30 30 39 41 42 39 32 31 32 31 34 21
48 46 42 44 30 53 41 49 36 29 31 21 21 24 29 31 36 39 42 39 38 46 37 32 35 37 33 31 28 26 26 30 35 30 30 32 34 36 34 35 33 23 28
52 42 30 28 32 48 38 30 27 27 23 26 30 30 32 35 36 34 33 32 40 34 28 30 25 34 38 36 32 29 30 31 26 30 27 29 34 31 26 24 29 28 28
40 37 22 36 47 36 33 29 27 27 27 27 32 25 24 27 26 27 27 28 28 25 34 22 30 43 49 46 43 39 35 30 32 37 32 35 38 33 31 29 30 24 24
33 32 40 54 39 33 24 26 26 26 22 21 18 19 23 25 29 30 31 31 31 28 22 33 42 47 50 54 53 45 39 36 38 39 42 49 45 42 44 42 37 34 26
43 60 41 39 29 27 25 23 22 17 20 19 20 26 29 31 32 31 31 31 31 31 33 40 45 47 46 47 48 46 43 42 41 43 45 47 48 48 51 56 54 50 43
44 39 36 27 27 25 21 20 19 20 22 23 26 28 29 30 29 25 26 28 31 36 40 45 48 48 44 43 45 48 46 42 44 48 46 47 49 52 53 57 63 67 67
48 42 32 30 26 25 21 20 21 23 27 30 32 31 28 20 19 17 21 28 35 41 42 40 40 38 39 40 41 39 40 38 36 41 43 51 55 57 59 60 57 56 63
48 39 35 31 27 21 20 20 23 30 32 26 15 6 3 5 11 20 27 39 41 36 33 30 30 33 32 32 33 38 32 28 25 19 19 28 36 47 56 63 62 58 52
42 39 35 29 22 18 19 20 26 20 9 0 5 2 3 9 17 29 30 33 32 29 28 26 20 24 28 32 36 44 45 43 31 34 47 40 42 41 37 42 48 55 58
43 36 29 21 15 15 14 17 8 1 3 4 2 3 4 14 21 26 33 26 23 22 21 23 24 26 28 34 39 42 48 56 62 46 64 58 46 39 34 34 36 39 43
38 30 21 13 10 6 4 10 13 9 8 7 4 2 8 16 20 25 18 14 11 15 20 21 24 28 34 36 45 50 51 55 56 58 59 63 45 47 39 33 31 34 36
32 23 16 10 7 10 15 14 9 6 7 6 4 7 12 17 19 14 12 12 8 12 17 22 26 32 38 43 48 53 58 64 64 59 50 56 55 58 49 42 33 28 31
29 22 16 13 12 14 16 8 4 4 6 7 7 9 14 17 10 11 13 15 15 18 20 26 32 38 44 48 53 58 58 61 70 64 40 29 57 62 52 41 33 24 27
26 24 23 20 19 14 13 7 4 6 8 6 7 10 14 14 9 11 16 24 28 31 33 38 42 45 47 48 49 48 47 46 44 46 27 55 60 56 50 57 50 46 46
Wind_Direction_850mb
212 212 213 214 212 213 215 201 219 229 237 269 268 269 274 286 290 309 302 296 294 298 303 306 310 303 297 293 293 294 291 290 294 293 290 288 286 284 284 283 282 273 271
217 220 220 220 217 213 206 215 226 245 257 263 262 268 277 281 288 298 306 301 298 293 293 294 297 294 293 294 295 292 293 279 284 294 300 299 296 286 280 281 283 279 266
220 220 223 222 219 218 217 223 239 254 272 271 277 280 277 279 283 290 295 298 298 295 293 296 293 291 289 289 288 292 295 295 290 302 300 299 298 292 284 282 285 282 278
222 223 223 220 213 214 226 241 255 268 276 276 281 289 290 289 289 292 292 290 294 298 295 297 297 297 296 295 287 295 291 285 291 296 296 296 296 289 286 284 281 277 273
221 222 222 223 223 228 238 259 269 269 278 285 291 291 292 294 291 291 289 295 305 295 298 300 299 293 290 289 290 291 286 283 298 299 299 295 301 295 292 295 287 279 271
220 221 220 220 229 242 246 257 267 275 285 290 290 291 292 290 291 294 297 297 300 303 302 304 302 295 293 293 296 293 292 293 295 300 309 298 302 297 300 298 293 282 276
207 206 206 217 230 248 259 259 265 277 279 281 283 288 292 293 298 297 300 302 308 303 303 310 305 301 290 286 297 291 303 296 300 308 304 298 300 300 300 294 296 292 278
208 212 213 220 227 243 264 264 266 276 281 285 287 295 303 301 303 301 297 304 310 305 306 311 309 302 301 296 292 294 304 308 306 311 317 312 306 305 301 304 297 290 281
214 213 220 229 235 244 264 273 281 282 287 290 291 291 297 283 304 307 307 311 312 310 312 315 303 296 300 297 295 293 294 301 306 314 320 321 317 318 308 314 319 305 283
213 217 219 230 234 249 267 276 279 287 287 290 290 287 285 283 298 304 305 312 315 316 320 320 315 304 300 295 290 288 294 299 302 313 320 322 321 321 307 311 316 301 306
220 223 227 232 222 241 264 273 270 276 281 290 288 291 293 295 294 296 312 317 313 320 325 325 325 319 310 301 287 284 285 293 296 305 307 311 309 313 303 313 314 313 291
219 224 230 219 225 245 257 254 262 272 278 276 278 285 298 308 309 316 307 308 312 315 319 319 318 318 319 312 301 294 291 291 299 311 313 316 304 295 298 304 307 315 325
224 228 212 213 234 252 259 259 269 266 263 266 272 287 299 303 301 300 297 305 314 321 325 316 316 316 321 319 299 289 289 293 297 309 317 315 313 297 282 290 296 296 306
217 211 222 248 270 258 247 246 242 250 249 268 283 287 286 290 293 295 302 308 312 313 312 316 303 308 324 327 328 319 303 292 284 285 285 290 297 293 279 278 289 279 280
201 191 215 245 237 228 228 227 237 256 264 268 278 281 286 286 292 299 304 307 312 314 307 304 303 307 308 313 315 313 311 304 297 288 269 266 293 262 255 267 286 277 267
193 249 205 222 218 220 217 237 252 263 265 255 259 278 283 290 292 293 296 299 302 303 296 297 300 303 302 303 306 305 300 294 289 285 272 275 279 258 255 262 272 274 270
210 210 198 197 205 215 224 243 244 237 238 258 279 286 292 293 290 291 297 303 305 309 317 311 311 312 310 305 300 299 295 287 282 282 281 284 283 281 274 268 270 266 267
203 197 193 203 207 215 211 215 230 246 265 277 285 290 292 291 289 296 301 308 317 324 324 320 314 315 317 315 311 310 309 302 290 281 281 281 280 279 278 278 278 275 272
189 181 197 195 195 192 204 227 249 268 281 287 287 287 287 286 290 301 312 316 317 320 322 319 318 321 324 322 319 317 316 311 311 300 292 281 279 279 279 280 280 277 274
179 180 183 186 188 203 230 253 276 283 286 288 290 294 265 283 314 314 323 322 323 317 319 322 326 333 344 350 346 346 352 355 353 346 331 325 309 291 282 275 273 273 272
174 177 180 185 203 227 258 280 286 290 302 312 134 183 340 349 336 335 337 331 329 328 329 331 350 356 352 348 351 348 345 347 357 344 332 344 328 309 290 278 275 269 264
170 173 180 195 215 249 273 280 263 263 158 140 129 149 358 342 352 351 341 339 350 6 18 2 3 348 345 338 334 341 340 340 336 344 326 332 337 334 318 296 283 275 277
170 176 186 199 225 228 198 115 103 114 104 95 113 37 342 347 338 336 346 349 347 354 349 352 344 337 331 335 330 328 326 323 321 327 326 328 338 335 330 310 301 284 277
172 173 181 184 167 150 122 119 111 79 64 75 46 356 340 333 333 348 3 9 357 334 334 330 325 320 318 317 315 312 313 312 312 319 326 316 339 337 338 339 330 314 282
166 169 155 143 141 140 135 126 80 17 29 29 17 350 335 336 7 357 343 338 341 325 329 319 312 306 303 301 301 303 306 309 315 322 334 319 326 329 331 342 344 331 318
158 150 145 143 135 135 125 104 46 3 359 360 334 327 327 342 350 325 332 335 334 333 325 316 312 308 305 302 302 304 309 311 316 327 323 322 323 327 322 325 320 321 327